OCN5ZT LGMK-EDDF

Flight info

Callsign OCN5ZT
Flight time N/A
Altitude 38000
Route VARIX L995 KEA UN132 ROPOX UM749 SKP UL617 MAKED DCT LONTA UL608 DOLEV DCT LURID DCT BEDOX DCT SIMBA DCT AKINI T161 DEBHI SPESA5C
Aircraft A320/M-SDE3FGHIRWY/LB1

Departure

Time 2026-05-01 15:16
Airport Mykonos Island National Airport (LGMK)

Arrival

Time N/A
Airport Frankfurt Main Airport (EDDF)
Time Latitude Longitude Altitude Speed Heading
2026-05-01 14:19 37.43507 25.34644 407 ft 0 kts 251°
2026-05-01 15:07 37.43512 25.34662 405 ft 4 kts 241°
2026-05-01 15:07 37.43528 25.34687 403 ft 4 kts 207°
2026-05-01 15:07 37.43550 25.34692 406 ft 2 kts 161°
2026-05-01 15:08 37.43554 25.34690 406 ft 0 kts 161°
2026-05-01 15:11 37.43501 25.34713 408 ft 8 kts 161°
2026-05-01 15:11 37.43443 25.34739 408 ft 9 kts 154°
2026-05-01 15:12 37.43411 25.34798 409 ft 7 kts 115°
2026-05-01 15:12 37.43359 25.34891 412 ft 11 kts 153°
2026-05-01 15:12 37.43285 25.34924 413 ft 12 kts 161°
2026-05-01 15:13 37.43082 25.35014 414 ft 13 kts 160°
2026-05-01 15:14 37.42898 25.35095 413 ft 15 kts 161°
2026-05-01 15:14 37.42799 25.35139 411 ft 13 kts 160°
2026-05-01 15:14 37.42724 25.35173 407 ft 2 kts 333°
2026-05-01 15:15 37.42732 25.35170 409 ft 0 kts 339°
2026-05-01 15:16 37.42975 25.35061 414 ft 73 kts 340°
2026-05-01 15:16 37.44522 25.34375 1269 ft 134 kts 342°
2026-05-01 15:17 37.46421 25.33445 2545 ft 168 kts 329°
2026-05-01 15:18 37.47169 25.28374 4319 ft 239 kts 276°
2026-05-01 15:18 37.47207 25.26169 4928 ft 264 kts 277°
2026-05-01 15:19 37.47340 25.19096 7835 ft 267 kts 274°
2026-05-01 15:19 37.47633 25.14404 9504 ft 267 kts 278°
2026-05-01 15:19 37.47849 25.12091 9642 ft 264 kts 278°
2026-05-01 15:20 37.48288 25.07488 10019 ft 266 kts 278°
2026-05-01 15:20 37.48517 25.05146 10116 ft 281 kts 278°
2026-05-01 15:20 37.48771 25.02629 10097 ft 295 kts 278°
2026-05-01 15:21 37.49037 25.00049 10096 ft 298 kts 278°
2026-05-01 15:21 37.49309 24.97463 10102 ft 297 kts 278°
2026-05-01 15:21 37.49582 24.94894 10125 ft 295 kts 278°
2026-05-01 15:21 37.49849 24.92324 10102 ft 297 kts 278°
2026-05-01 15:22 37.50359 24.87143 10964 ft 302 kts 277°
2026-05-01 15:22 37.50607 24.84485 11889 ft 308 kts 277°
2026-05-01 15:22 37.50849 24.81790 12929 ft 309 kts 276°
2026-05-01 15:23 37.51084 24.79072 13832 ft 315 kts 276°
2026-05-01 15:23 37.51394 24.76334 14711 ft 315 kts 284°
2026-05-01 15:23 37.52294 24.73819 15642 ft 319 kts 301°
2026-05-01 15:23 37.53730 24.71647 16414 ft 326 kts 307°
2026-05-01 15:24 37.55238 24.69492 17235 ft 329 kts 306°
2026-05-01 15:24 37.56759 24.67310 18074 ft 332 kts 306°
2026-05-01 15:24 37.58284 24.65112 18840 ft 335 kts 306°
2026-05-01 15:24 37.59813 24.62898 19586 ft 336 kts 305°
2026-05-01 15:25 37.61350 24.60665 20334 ft 337 kts 305°
2026-05-01 15:25 37.62893 24.58422 21061 ft 339 kts 305°
2026-05-01 15:25 37.64439 24.56171 21778 ft 341 kts 305°
2026-05-01 15:25 37.65975 24.53935 22466 ft 343 kts 304°
2026-05-01 15:26 37.67554 24.51661 23155 ft 346 kts 307°
2026-05-01 15:26 37.69560 24.49876 23776 ft 369 kts 329°
2026-05-01 15:26 37.72081 24.48974 24305 ft 379 kts 335°
2026-05-01 15:26 37.74547 24.47884 24855 ft 373 kts 329°
2026-05-01 15:27 37.77018 24.46815 25440 ft 379 kts 334°
2026-05-01 15:27 37.79570 24.45916 25997 ft 382 kts 334°
2026-05-01 15:27 37.82142 24.45016 26485 ft 383 kts 333°
2026-05-01 15:28 37.87149 24.42791 27573 ft 381 kts 327°
2026-05-01 15:28 37.89562 24.41538 28071 ft 380 kts 326°
2026-05-01 15:28 37.91981 24.40181 28579 ft 380 kts 324°
2026-05-01 15:29 37.96806 24.37373 29631 ft 383 kts 323°
2026-05-01 15:29 37.99242 24.35967 30134 ft 385 kts 323°
2026-05-01 15:29 38.04167 24.33174 30934 ft 391 kts 324°
2026-05-01 15:30 38.09178 24.30372 31660 ft 396 kts 324°
2026-05-01 15:31 38.19327 24.24694 33313 ft 398 kts 324°
2026-05-01 15:31 38.24393 24.21846 34206 ft 397 kts 324°
2026-05-01 15:32 38.29411 24.19013 34931 ft 398 kts 324°
2026-05-01 15:32 38.34468 24.16148 35665 ft 398 kts 325°
2026-05-01 15:33 38.42076 24.11850 36655 ft 399 kts 326°
2026-05-01 15:34 38.49696 24.07530 37579 ft 400 kts 326°